Weather History for KAVK - November, 2011

Change the Weather History Date:

Friday, November 4, 2011

  Actual Average Record
Temperature  
Mean Temperature 42 °F -  
Max Temperature 59 °F 59 °F 82 °F (2007)
Min Temperature 24 °F 36 °F 16 °F (1991)
Degree Days  
Heating Degree Days 24    
Moisture  
Dew Point 22 °F    
Average Humidity 50    
Maximum Humidity 74    
Minimum Humidity 25    
Precipitation  
Precipitation 0.00 in - - ()
Sea Level Pressure  
Sea Level Pressure 30.15 in    
Wind  
Wind Speed 8 mph (South)    
Max Wind Speed 20 mph    
Max Gust Speed 26 mph    
Visibility 10 miles    
Events      
Averages and records for this station are not official NWS values.
T = Trace of Precipitation, MM = Missing Value Source: NWS Daily Summary

Daily Weather History Graph

Daily Weather History Graph

Search for Another Location

Airport or City:

Trip Planner

Search our weather history database for the weather conditions in past years. The results will help you decide how hot, cold, wet, or windy it might be!

Date:

Astronomy

Nov. 04, 2011 Rise Set
Actual Time 8:01 AM CDT 6:34 PM CDT
Civil Twilight 7:34 AM CDT 7:01 PM CDT
Nautical Twilight 7:03 AM CDT 7:32 PM CDT
Astronomical Twilight 6:33 AM CDT 8:02 PM CDT
Moon 3:19 PM CDT (11/4) 2:23 AM CDT (11/4)
Length of Visible Light 11h 27m
Length of Day
10h 33m
Waxing Gibbous, 69% of the Moon is Illuminated
Nov 4
Waxing Gibbous
Nov 10
Full
Nov 18
Last Quarter
Nov 25
New
Dec 2
First Quarter

Hourly Weather History & Observations

Time (CDT) Temp. Windchill Dew Point Humidity Pressure Visibility Wind Dir Wind Speed Gust Speed Precip Events Conditions
12:00 AM 35.6 °F 32.8 °F 19.4 °F 52% 30.28 in 10.0 mi ESE 3.5 mph - N/A   Clear
1:00 AM 33.8 °F 29.6 °F 19.4 °F 56% 30.26 in 10.0 mi East 4.6 mph - N/A   Clear
1:20 AM 33.8 °F 29.6 °F 19.4 °F 56% 30.25 in 10.0 mi East 4.6 mph - N/A   Clear
1:40 AM 32.0 °F 27.5 °F 19.4 °F 60% 30.24 in 10.0 mi East 4.6 mph - N/A   Clear
2:00 AM 32.0 °F 27.5 °F 19.4 °F 60% 30.24 in 10.0 mi East 4.6 mph - N/A   Clear
2:20 AM 32.0 °F 27.5 °F 21.2 °F 64% 30.24 in 10.0 mi East 4.6 mph - N/A   Clear
2:40 AM 32.0 °F 28.7 °F 23.0 °F 69% 30.24 in 10.0 mi ESE 3.5 mph - N/A   Clear
3:00 AM 24.8 °F 17.9 °F 17.6 °F 74% 30.25 in 10.0 mi West 5.8 mph - N/A   Clear
3:20 AM 24.8 °F - 17.6 °F 74% 30.24 in 10.0 mi Calm Calm - N/A   Clear
3:40 AM 26.6 °F 21.2 °F 19.4 °F 74% 30.23 in 10.0 mi WSW 4.6 mph - N/A   Clear
4:00 AM 30.2 °F 25.4 °F 19.4 °F 64% 30.23 in 10.0 mi SSW 4.6 mph - N/A   Clear
4:20 AM 24.8 °F 16.9 °F 17.6 °F 74% 30.23 in 10.0 mi WSW 6.9 mph - N/A   Clear
4:40 AM 24.8 °F 16.1 °F 17.6 °F 74% 30.23 in 10.0 mi WSW 8.1 mph - N/A   Clear
5:00 AM 24.8 °F 16.1 °F 17.6 °F 74% 30.23 in 10.0 mi WSW 8.1 mph - N/A   Clear
5:20 AM 24.8 °F 16.9 °F 17.6 °F 74% 30.22 in 10.0 mi WSW 6.9 mph - N/A   Clear
5:40 AM 24.8 °F 17.9 °F 17.6 °F 74% 30.23 in 10.0 mi SW 5.8 mph - N/A   Clear
6:00 AM 26.6 °F 22.6 °F 17.6 °F 69% 30.22 in 10.0 mi SSW 3.5 mph - N/A   Clear
6:20 AM 28.4 °F 22.2 °F 19.4 °F 69% 30.23 in 10.0 mi SSW 5.8 mph - N/A   Clear
6:40 AM 26.6 °F 21.2 °F 17.6 °F 69% 30.22 in 10.0 mi SSW 4.6 mph - N/A   Clear
7:00 AM 26.6 °F 21.2 °F 19.4 °F 74% 30.23 in 10.0 mi SSW 4.6 mph - N/A   Clear
7:20 AM 26.6 °F 21.2 °F 17.6 °F 69% 30.22 in 10.0 mi SW 4.6 mph - N/A   Clear
7:40 AM 26.6 °F 21.2 °F 17.6 °F 69% 30.22 in 10.0 mi South 4.6 mph - N/A   Clear
8:00 AM 26.6 °F 20.0 °F 19.4 °F 74% 30.22 in 10.0 mi South 5.8 mph - N/A   Clear
8:20 AM 26.6 °F 20.0 °F 19.4 °F 74% 30.22 in 10.0 mi SSE 5.8 mph - N/A   Clear
9:00 AM 32.0 °F 26.4 °F 23.0 °F 69% 30.23 in 10.0 mi South 5.8 mph - N/A   Clear
9:20 AM 35.6 °F 28.0 °F 24.8 °F 65% 30.23 in 10.0 mi South 10.4 mph - N/A   Clear
9:40 AM 37.4 °F 29.8 °F 24.8 °F 60% 30.24 in 10.0 mi South 11.5 mph - N/A   Clear
10:00 AM 41.0 °F 34.3 °F 26.6 °F 57% 30.23 in 10.0 mi South 11.5 mph - N/A   Clear
10:20 AM 42.8 °F 35.8 °F 26.6 °F 53% 30.23 in 10.0 mi South 13.8 mph - N/A   Clear
10:40 AM 46.4 °F 40.1 °F 24.8 °F 43% 30.21 in 10.0 mi South 15.0 mph - N/A   Clear
11:00 AM 46.4 °F 40.4 °F 23.0 °F 40% 30.20 in 10.0 mi SSE 13.8 mph - N/A   Clear
11:20 AM 48.2 °F - 23.0 °F 37% 30.19 in 10.0 mi South 18.4 mph - N/A   Clear
11:40 AM 50.0 °F - 23.0 °F 35% 30.18 in 10.0 mi SSE 16.1 mph - N/A   Clear
12:00 PM 50.0 °F - 24.8 °F 37% 30.18 in 10.0 mi South 16.1 mph 21.9 mph N/A   Clear
12:20 PM 53.6 °F - 23.0 °F 30% 30.17 in 10.0 mi South 15.0 mph - N/A   Clear
1:00 PM 53.6 °F - 23.0 °F 30% 30.14 in 10.0 mi South 15.0 mph 20.7 mph N/A   Clear
1:20 PM 55.4 °F - 23.0 °F 29% 30.13 in 10.0 mi South 13.8 mph 20.7 mph N/A   Clear
1:40 PM 55.4 °F - 23.0 °F 29% 30.12 in 10.0 mi South 15.0 mph 20.7 mph N/A   Clear
2:00 PM 55.4 °F - 23.0 °F 29% 30.11 in 10.0 mi South 16.1 mph 21.9 mph N/A   Clear
2:20 PM 53.6 °F - 21.2 °F 28% 30.10 in 10.0 mi South 13.8 mph - N/A   Clear
2:40 PM 57.2 °F - 23.0 °F 27% 30.08 in 10.0 mi South 19.6 mph 26.5 mph N/A   Clear
3:00 PM 57.2 °F - 23.0 °F 27% 30.07 in 10.0 mi South 13.8 mph 23.0 mph N/A   Clear
3:20 PM 57.2 °F - 23.0 °F 27% 30.06 in 10.0 mi SSE 15.0 mph 18.4 mph N/A   Clear
3:40 PM 57.2 °F - 24.8 °F 29% 30.05 in 10.0 mi SE 17.3 mph - N/A   Clear
4:00 PM 59.0 °F - 23.0 °F 25% 30.04 in 10.0 mi South 18.4 mph 21.9 mph N/A   Clear
4:20 PM 59.0 °F - 23.0 °F 25% 30.03 in 10.0 mi SSE 16.1 mph - N/A   Clear
5:00 PM 59.0 °F - 23.0 °F 25% 30.02 in 10.0 mi South 19.6 mph - N/A   Clear
5:20 PM 57.2 °F - 24.8 °F 29% 30.02 in 10.0 mi South 18.4 mph - N/A   Clear
5:40 PM 57.2 °F - 24.8 °F 29% 30.02 in 10.0 mi South 16.1 mph - N/A   Clear
6:00 PM 55.4 °F - 24.8 °F 31% 30.02 in 9.0 mi South 12.7 mph - N/A   Clear
6:20 PM 53.6 °F - 24.8 °F 33% 30.02 in 10.0 mi SSE 11.5 mph - N/A   Clear
6:40 PM 51.8 °F - 23.0 °F 33% 30.02 in 10.0 mi SSE 12.7 mph - N/A   Partly Cloudy
7:00 PM 50.0 °F - 23.0 °F 35% 30.02 in 10.0 mi SSE 11.5 mph - N/A   Mostly Cloudy
7:20 PM 48.2 °F - 23.0 °F 37% 30.02 in 10.0 mi SSE 10.4 mph - N/A   Overcast
7:40 PM 48.2 °F - 23.0 °F 37% 30.02 in 10.0 mi South 10.4 mph - N/A   Overcast
8:00 PM 46.4 °F 41.9 °F 23.0 °F 40% 30.02 in 10.0 mi SSE 9.2 mph - N/A   Overcast
8:20 PM 46.4 °F 41.9 °F 23.0 °F 40% 30.01 in 10.0 mi SSE 9.2 mph - N/A   Overcast
8:40 PM 44.6 °F 40.2 °F 23.0 °F 43% 30.01 in 10.0 mi SSE 8.1 mph - N/A   Overcast
9:00 PM 44.6 °F 38.8 °F 24.8 °F 46% 30.01 in 10.0 mi SSE 11.5 mph - N/A   Overcast
10:00 PM 42.8 °F 37.5 °F 24.8 °F 49% 30.02 in 10.0 mi SSE 9.2 mph - N/A   Overcast
10:20 PM 41.0 °F 35.2 °F 24.8 °F 53% 30.01 in 10.0 mi SSE 9.2 mph - N/A   Overcast
10:40 PM 42.8 °F 37.5 °F 24.8 °F 49% 30.01 in 10.0 mi SSE 9.2 mph - N/A   Overcast
11:00 PM 41.0 °F 34.7 °F 24.8 °F 53% 30.01 in 10.0 mi SSE 10.4 mph - N/A   Overcast
11:20 PM 39.2 °F 33.6 °F 24.8 °F 56% 30.00 in 10.0 mi SSE 8.1 mph - N/A   Overcast
11:40 PM 39.2 °F 32.0 °F 24.8 °F 56% 30.00 in 10.0 mi SSE 11.5 mph - N/A   Overcast